Madison, MN

10:48 AM CST on December 12, 2019 (GMT -0600)
Madison-Lac Qui Parle County

Weather History for KDXX - August, 2019

Change the Weather History Date:

Tuesday, August 13, 2019

  Actual Average (WUND) Record (WUND)
Temperature  
Mean Temperature 72 °F -  
Max Temperature 80 °F - - (-1)
Min Temperature 64 °F - - (-1)
Cooling Degree Days 7    
Growing Degree Days 22 (Base 50)    
Moisture  
Dew Point 64 °F    
Average Humidity 82    
Maximum Humidity 100    
Minimum Humidity 51    
Precipitation  
Precipitation 0.00 in - - ()
Sea Level Pressure  
Sea Level Pressure 29.95 in    
Wind  
Wind Speed 9 mph (WNW)    
Max Wind Speed 21 mph    
Max Gust Speed 28 mph    
Visibility 7 miles    
Events Fog , Rain    
Averages and records for this station are not official NWS values.
T = Trace of Precipitation, MM = Missing Value Source: NWS Daily Summary

Daily Weather History Graph

Daily Weather History Graph

Search for Another Location

Airport or City:

Astronomy

Aug. 13, 2019 Rise Set
Actual Time 6:23 AM CDT 8:34 PM CDT
Civil Twilight 5:51 AM CDT 9:06 PM CDT
Nautical Twilight 5:11 AM CDT 9:46 PM CDT
Astronomical Twilight 4:27 AM CDT 10:30 PM CDT
Moon 7:55 PM CDT (8/13) 4:20 AM CDT (8/13)
Length of Visible Light 15h 14m
Length of Day
14h 10m
Waxing Gibbous, 97% of the Moon is Illuminated
Aug 13
Waxing Gibbous
Aug 15
Full
Aug 23
Last Quarter
Aug 30
New
Sep 5
First Quarter

Hourly Weather History & Observations

Time (CDT) Temp. Heat Index Dew Point Humidity Pressure Visibility Wind Dir Wind Speed Gust Speed Precip Events Conditions
12:15 AM 68.0 °F - 66.2 °F 94% 29.89 in 7.0 mi WSW 4.6 mph - N/A   Clear
12:35 AM 68.0 °F - 66.2 °F 94% 29.89 in 7.0 mi West 3.5 mph - N/A   Clear
12:55 AM 68.0 °F - 66.2 °F 94% 29.89 in 7.0 mi West 6.9 mph - N/A   Clear
12:56 AM 68.0 °F - 66.2 °F 94% 29.89 in 7.0 mi West 5.8 mph - N/A   Clear
1:15 AM 69.8 °F - 68.0 °F 94% 29.89 in 7.0 mi WNW 8.1 mph - N/A   Mostly Cloudy
1:35 AM 69.8 °F - 69.8 °F 100% 29.89 in 0.2 mi WNW 8.1 mph - N/A Rain Light Rain
1:36 AM 69.8 °F - 69.8 °F 100% 29.89 in 0.2 mi WNW 9.2 mph - N/A Rain Light Rain
1:55 AM 69.8 °F - 69.8 °F 100% 29.90 in 1.5 mi WNW 12.7 mph - N/A   Light Drizzle
1:56 AM 69.8 °F - 69.8 °F 100% 29.89 in 1.8 mi NW 11.5 mph - N/A   Light Drizzle
2:18 AM 69.8 °F - 69.8 °F 100% 29.90 in 1.0 mi NW 9.2 mph - N/A   Overcast
2:37 AM 69.8 °F - 69.8 °F 100% 29.90 in 0.2 mi NW 10.4 mph - N/A Fog Fog
2:56 AM 69.8 °F - 68.0 °F 94% 29.91 in 0.8 mi NW 11.5 mph - N/A   Overcast
3:15 AM 69.8 °F - 68.0 °F 94% 29.91 in 0.2 mi NW 9.2 mph - N/A Fog Fog
3:16 AM 69.8 °F - 68.0 °F 94% 29.91 in 0.2 mi NW 10.4 mph - N/A Fog Fog
3:35 AM 69.8 °F - 68.0 °F 94% 29.91 in 0.8 mi NW 9.2 mph - N/A   Overcast
3:57 AM 69.8 °F - 68.0 °F 94% 29.91 in 1.0 mi NNW 6.9 mph - N/A   Overcast
4:15 AM 69.8 °F - 68.0 °F 94% 29.91 in 0.5 mi NW 3.5 mph - N/A Fog Fog
4:35 AM 68.0 °F - 68.0 °F 100% 29.92 in 0.8 mi WNW 5.8 mph - N/A   Overcast
4:36 AM 68.0 °F - 68.0 °F 100% 29.92 in 0.8 mi WNW 5.8 mph - N/A   Overcast
4:55 AM 68.0 °F - 66.2 °F 94% 29.92 in 0.8 mi WNW 4.6 mph - N/A   Overcast
4:56 AM 68.0 °F - 66.2 °F 94% 29.92 in 0.8 mi WNW 5.8 mph - N/A   Overcast
5:19 AM 68.0 °F - 66.2 °F 94% 29.93 in 1.8 mi North 8.1 mph - N/A   Overcast
5:36 AM 68.0 °F - 66.2 °F 94% 29.93 in 3.0 mi NNW 6.9 mph - N/A   Overcast
5:55 AM 68.0 °F - 66.2 °F 94% 29.93 in 2.5 mi Calm Calm - N/A   Overcast
6:15 AM 68.0 °F - 66.2 °F 94% 29.93 in 4.0 mi West 3.5 mph - N/A   Overcast
6:16 AM 68.0 °F - 66.2 °F 94% 29.93 in 4.0 mi West 3.5 mph - N/A   Overcast
6:35 AM 68.0 °F - 66.2 °F 94% 29.93 in 3.0 mi Calm Calm - N/A   Overcast
6:39 AM 68.0 °F - 66.2 °F 94% 29.93 in 3.0 mi Calm Calm - N/A   Overcast
6:58 AM 68.0 °F - 66.2 °F 94% 29.93 in 2.5 mi Calm Calm - N/A   Overcast
7:35 AM 66.2 °F - 66.2 °F 100% 29.93 in 0.5 mi SW 3.5 mph - N/A Fog Fog
7:36 AM 66.2 °F - 66.2 °F 100% 29.93 in 0.2 mi SW 3.5 mph - N/A Fog Fog
7:55 AM 66.2 °F - 66.2 °F 100% 29.93 in 0.2 mi South 4.6 mph - N/A Fog Fog
7:56 AM 66.2 °F - 66.2 °F 100% 29.93 in 0.2 mi South 4.6 mph - N/A Fog Fog
8:18 AM 66.2 °F - 66.2 °F 100% 29.93 in 0.2 mi SSW 3.5 mph - N/A Fog Fog
8:37 AM 66.2 °F - 66.2 °F 100% 29.93 in 0.5 mi South 6.9 mph - N/A Fog Fog
8:55 AM 68.0 °F - 66.2 °F 94% 29.93 in 2.0 mi SSW 4.6 mph - N/A   Overcast
8:56 AM 68.0 °F - 66.2 °F 94% 29.93 in 2.5 mi SSW 5.8 mph - N/A   Overcast
9:15 AM 69.8 °F - 68.0 °F 94% 29.93 in 5.0 mi SSW 4.6 mph - N/A   Overcast
9:16 AM 69.8 °F - 68.0 °F 94% 29.93 in 7.0 mi SSW 4.6 mph - N/A   Overcast
9:35 AM 71.6 °F - 69.8 °F 94% 29.92 in 10.0 mi South 3.5 mph - N/A   Scattered Clouds
9:57 AM 73.4 °F - 68.0 °F 83% 29.92 in 10.0 mi SW 5.8 mph - N/A   Clear
10:15 AM 77.0 °F - 68.0 °F 74% 29.92 in 10.0 mi WSW 4.6 mph - N/A   Clear
10:35 AM 80.6 °F 82.3 °F 64.4 °F 58% 29.92 in 10.0 mi West 12.7 mph 16.1 mph N/A   Clear
10:55 AM 78.8 °F - 62.6 °F 57% 29.93 in 10.0 mi West 13.8 mph - N/A   Clear
10:56 AM 78.8 °F - 62.6 °F 57% 29.93 in 10.0 mi West 13.8 mph - N/A   Clear
11:19 AM 80.6 °F 81.8 °F 62.6 °F 54% 29.92 in 10.0 mi West 11.5 mph - N/A   Clear
11:36 AM 80.6 °F 81.8 °F 62.6 °F 54% 29.93 in 10.0 mi West 10.4 mph - N/A   Clear
11:56 AM 80.6 °F 81.5 °F 60.8 °F 51% 29.93 in 10.0 mi West 13.8 mph 19.6 mph N/A   Clear
12:15 PM 78.8 °F - 62.6 °F 57% 29.94 in 10.0 mi WNW 17.3 mph 24.2 mph N/A   Scattered Clouds
12:16 PM 78.8 °F - 62.6 °F 57% 29.94 in 10.0 mi NW 18.4 mph 24.2 mph N/A   Scattered Clouds
12:35 PM 77.0 °F - 60.8 °F 57% 29.95 in 10.0 mi West 19.6 mph 27.6 mph N/A   Scattered Clouds
12:39 PM 75.2 °F - 60.8 °F 61% 29.95 in 10.0 mi WNW 16.1 mph 25.3 mph N/A   Scattered Clouds
12:57 PM 75.2 °F - 60.8 °F 61% 29.96 in 10.0 mi WNW 17.3 mph 24.2 mph N/A   Mostly Cloudy
1:16 PM 73.4 °F - 59.0 °F 61% 29.96 in 10.0 mi WNW 18.4 mph 24.2 mph N/A   Overcast
1:35 PM 73.4 °F - 59.0 °F 61% 29.96 in 10.0 mi WNW 13.8 mph 18.4 mph N/A   Overcast
1:36 PM 73.4 °F - 59.0 °F 61% 29.96 in 10.0 mi WNW 13.8 mph 18.4 mph N/A   Overcast
1:55 PM 73.4 °F - 59.0 °F 61% 29.96 in 10.0 mi West 16.1 mph 21.9 mph N/A   Overcast
2:18 PM 73.4 °F - 60.8 °F 65% 29.96 in 10.0 mi West 17.3 mph 21.9 mph N/A   Overcast
2:36 PM 73.4 °F - 60.8 °F 65% 29.95 in 10.0 mi WNW 17.3 mph 23.0 mph N/A   Overcast
2:55 PM 75.2 °F - 60.8 °F 61% 29.95 in 10.0 mi WNW 17.3 mph - N/A   Scattered Clouds
2:56 PM 75.2 °F - 60.8 °F 61% 29.95 in 10.0 mi WNW 16.1 mph - N/A   Mostly Cloudy
3:15 PM 77.0 °F - 60.8 °F 57% 29.94 in 10.0 mi West 19.6 mph 26.5 mph N/A   Scattered Clouds
3:16 PM 75.2 °F - 60.8 °F 61% 29.94 in 10.0 mi WNW 18.4 mph 26.5 mph N/A   Scattered Clouds
3:35 PM 77.0 °F - 60.8 °F 57% 29.94 in 10.0 mi West 19.6 mph 27.6 mph N/A   Mostly Cloudy
3:40 PM 77.0 °F - 60.8 °F 57% 29.94 in 10.0 mi WNW 20.7 mph 27.6 mph N/A   Scattered Clouds
3:57 PM 75.2 °F - 60.8 °F 61% 29.95 in 10.0 mi WNW 17.3 mph 24.2 mph N/A   Mostly Cloudy
4:15 PM 75.2 °F - 60.8 °F 61% 29.95 in 10.0 mi WNW 17.3 mph 24.2 mph N/A   Mostly Cloudy
4:35 PM 75.2 °F - 60.8 °F 61% 29.95 in 10.0 mi WNW 17.3 mph 24.2 mph N/A   Mostly Cloudy
4:55 PM 75.2 °F - 60.8 °F 61% 29.95 in 10.0 mi NW 17.3 mph 21.9 mph N/A   Mostly Cloudy
4:56 PM 75.2 °F - 60.8 °F 61% 29.95 in 10.0 mi WNW 17.3 mph 21.9 mph N/A   Mostly Cloudy
5:18 PM 73.4 °F - 62.6 °F 69% 29.96 in 7.0 mi NW 15.0 mph 25.3 mph N/A   Overcast
5:37 PM 71.6 °F - 62.6 °F 73% 29.96 in 10.0 mi NW 12.7 mph 18.4 mph N/A   Overcast
5:56 PM 73.4 °F - 62.6 °F 69% 29.96 in 10.0 mi NW 12.7 mph 20.7 mph N/A   Overcast
6:15 PM 73.4 °F - 62.6 °F 69% 29.96 in 10.0 mi NW 10.4 mph 19.6 mph N/A   Overcast
6:16 PM 73.4 °F - 62.6 °F 69% 29.96 in 10.0 mi NW 9.2 mph 19.6 mph N/A   Overcast
6:35 PM 71.6 °F - 62.6 °F 73% 29.97 in 10.0 mi NW 10.4 mph - N/A   Drizzle
6:39 PM 71.6 °F - 64.4 °F 78% 29.97 in 10.0 mi NW 11.5 mph - N/A   Drizzle
6:57 PM 71.6 °F - 62.6 °F 73% 29.98 in 10.0 mi WNW 12.7 mph - N/A   Light Drizzle
7:16 PM 69.8 °F - 62.6 °F 78% 29.98 in 10.0 mi WNW 9.2 mph - N/A   Light Drizzle
7:35 PM 69.8 °F - 62.6 °F 78% 29.99 in 10.0 mi NW 12.7 mph 18.4 mph N/A   Overcast
7:36 PM 69.8 °F - 62.6 °F 78% 29.99 in 10.0 mi NW 11.5 mph 18.4 mph N/A   Overcast
7:55 PM 69.8 °F - 62.6 °F 78% 29.99 in 10.0 mi NW 15.0 mph - N/A   Overcast
8:18 PM 66.2 °F - 64.4 °F 94% 30.01 in 5.0 mi WNW 12.7 mph - N/A Rain Rain
8:36 PM 66.2 °F - 64.4 °F 94% 30.01 in 10.0 mi WNW 11.5 mph - N/A   Mostly Cloudy
8:55 PM 66.2 °F - 64.4 °F 94% 30.01 in 10.0 mi WNW 10.4 mph - N/A   Scattered Clouds
8:56 PM 66.2 °F - 64.4 °F 94% 30.01 in 10.0 mi WNW 9.2 mph - N/A   Scattered Clouds
9:15 PM 66.2 °F - 62.6 °F 88% 30.01 in 10.0 mi WNW 9.2 mph - N/A   Scattered Clouds
9:16 PM 66.2 °F - 62.6 °F 88% 30.01 in 10.0 mi WNW 10.4 mph - N/A   Scattered Clouds
9:35 PM 64.4 °F - 62.6 °F 94% 30.02 in 10.0 mi NW 11.5 mph - N/A   Clear
9:40 PM 64.4 °F - 62.6 °F 94% 30.02 in 10.0 mi NW 11.5 mph - N/A   Clear
9:58 PM 64.4 °F - 62.6 °F 94% 30.02 in 10.0 mi WNW 9.2 mph - N/A   Clear
10:15 PM 64.4 °F - 62.6 °F 94% 30.03 in 10.0 mi WNW 6.9 mph - N/A   Clear
10:35 PM 64.4 °F - 62.6 °F 94% 30.03 in 10.0 mi WNW 6.9 mph - N/A   Scattered Clouds
10:36 PM 64.4 °F - 62.6 °F 94% 30.03 in 10.0 mi WNW 6.9 mph - N/A   Scattered Clouds
10:55 PM 64.4 °F - 62.6 °F 94% 30.03 in 10.0 mi WNW 9.2 mph - N/A   Overcast
10:56 PM 64.4 °F - 62.6 °F 94% 30.03 in 10.0 mi WNW 9.2 mph - N/A   Overcast
11:19 PM 64.4 °F - 62.6 °F 94% 30.04 in 10.0 mi WNW 9.2 mph - N/A   Overcast
11:36 PM 66.2 °F - 62.6 °F 88% 30.04 in 10.0 mi WNW 9.2 mph - N/A   Overcast
11:55 PM 66.2 °F - 62.6 °F 88% 30.04 in 10.0 mi WNW 8.1 mph - N/A   Overcast